| time (UTC) | temp F | wind direction | speed knots | gust knots | rain 1hr in | rain 24hr in | rain mn in | humidity % | barometer mb |
| 20260502162334 | 51 | 164 | 2.6 | 4.3 | 0.00 | 0.00 | 0.00 | 31 | 1029.3 |
| 20260502161831 | 51 | 25 | 3.5 | 4.3 | 0.00 | 0.00 | 0.00 | 32 | 1029.1 |
| 20260502161327 | 50 | 284 | 4.3 | 5.2 | 0.00 | 0.00 | 0.00 | 33 | 1029.1 |
| 20260502160825 | 52 | 174 | 0.0 | 0.0 | 0.00 | 0.00 | 0.00 | 31 | 1029.1 |
| 20260502160324 | 51 | 176 | 1.7 | 1.7 | 0.00 | 0.00 | 0.00 | 34 | 1029.4 |
| 20260502152259 | 49 | 114 | 2.6 | 4.3 | 0.00 | 0.00 | 0.00 | 32 | 1029.5 |
| 20260502151756 | 48 | 165 | 0.0 | 0.9 | 0.00 | 0.00 | 0.00 | 33 | 1030.0 |
| 20260502151253 | 48 | 204 | 0.9 | 0.9 | 0.00 | 0.00 | 0.00 | 34 | 1029.8 |
| 20260502150751 | 47 | 37 | 0.9 | 1.7 | 0.00 | 0.00 | 0.00 | 33 | 1029.8 |
| 20260502150247 | 47 | 19 | 5.2 | 6.1 | 0.00 | 0.00 | 0.00 | 32 | 1029.5 |
| 20260502130636 | 34 | 194 | 0.0 | 0.0 | 0.00 | 0.00 | 0.00 | 66 | 1029.9 |
| 20260502130133 | 31 | 197 | 0.0 | 0.0 | 0.00 | 0.00 | 0.00 | 72 | 1029.7 |
| 20260502123620 | 27 | 210 | 0.0 | 0.0 | 0.00 | 0.00 | 0.00 | 81 | 1029.7 |
| 20260502123115 | 26 | 206 | 0.0 | 0.0 | 0.00 | 0.00 | 0.00 | 79 | 1029.5 |
| 20260502122612 | 26 | 222 | 0.0 | 0.0 | 0.00 | 0.00 | 0.00 | 79 | 1029.4 |
| 20260502122109 | 26 | 207 | 0.0 | 0.9 | 0.00 | 0.00 | 0.00 | 79 | 1029.5 |
| 20260502121607 | 26 | 201 | 0.0 | 0.9 | 0.00 | 0.00 | 0.00 | 79 | 1029.3 |
| 20260502121105 | 26 | 216 | 0.0 | 0.0 | 0.00 | 0.00 | 0.00 | 79 | 1029.3 |
| 20260502120600 | 26 | 197 | 0.0 | 0.0 | 0.00 | 0.00 | 0.00 | 81 | 1029.5 |
| 20260502115556 | 26 | 212 | 0.0 | 0.0 | 0.00 | 0.00 | 0.00 | 79 | 1029.4 |
| 20260502115051 | 26 | 203 | 0.0 | 0.9 | 0.00 | 0.00 | 0.00 | 79 | 1029.3 |
| 20260502114548 | 26 | 210 | 0.0 | 0.0 | 0.00 | 0.00 | 0.00 | 80 | 1029.3 |
| 20260502114044 | 26 | 210 | 0.0 | 0.0 | 0.00 | 0.00 | 0.00 | 81 | 1029.3 |
| 20260502113542 | 26 | 196 | 0.9 | 0.9 | 0.00 | 0.00 | 0.00 | 81 | 1029.1 |
| 20260502113041 | 26 | 201 | 0.0 | 0.0 | 0.00 | 0.00 | 0.00 | 81 | 1029.1 |
| 20260502112538 | 26 | 218 | 0.0 | 0.0 | 0.00 | 0.00 | 0.00 | 80 | 1029.5 |
| 20260502112036 | 26 | 215 | 0.0 | 0.0 | 0.00 | 0.00 | 0.00 | 81 | 1029.3 |
| 20260502111532 | 26 | 187 | 0.9 | 0.9 | 0.00 | 0.00 | 0.00 | 80 | 1029.3 |
| 20260502111030 | 26 | 212 | 0.0 | 0.0 | 0.00 | 0.00 | 0.00 | 80 | 1029.1 |
| 20260502110527 | 26 | 207 | 0.0 | 0.0 | 0.00 | 0.00 | 0.00 | 81 | 1029.1 |
| 20260502110025 | 26 | 222 | 0.0 | 0.0 | 0.00 | 0.00 | 0.00 | 80 | 1029.5 |
| 20260502105522 | 26 | 186 | 0.9 | 0.9 | 0.00 | 0.00 | 0.00 | 80 | 1029.1 |
| 20260502105020 | 26 | 209 | 0.0 | 0.0 | 0.00 | 0.00 | 0.00 | 79 | 1029.3 |
| 20260502104516 | 27 | 245 | 0.0 | 0.0 | 0.00 | 0.00 | 0.00 | 78 | 1029.3 |
| 20260502104014 | 26 | 212 | 0.0 | 0.0 | 0.00 | 0.00 | 0.00 | 79 | 1029.1 |
| 20260502103511 | 27 | 225 | 0.0 | 0.0 | 0.00 | 0.00 | 0.00 | 78 | 1029.3 |
| 20260502103010 | 27 | 203 | 0.0 | 0.9 | 0.00 | 0.00 | 0.00 | 81 | 1029.1 |
| 20260502102505 | 27 | 211 | 0.0 | 0.0 | 0.00 | 0.00 | 0.00 | 81 | 1029.1 |
| 20260502102003 | 27 | 222 | 0.0 | 0.0 | 0.00 | 0.00 | 0.00 | 78 | 1029.1 |
| 20260502101500 | 28 | 197 | 0.0 | 0.0 | 0.00 | 0.00 | 0.00 | 76 | 1029.4 |
| 20260502100959 | 28 | 175 | 1.7 | 1.7 | 0.00 | 0.00 | 0.00 | 77 | 1029.4 |
| 20260502100457 | 28 | 177 | 0.9 | 1.7 | 0.00 | 0.00 | 0.00 | 77 | 1029.3 |
| 20260502091431 | 27 | 196 | 0.9 | 0.9 | 0.00 | 0.00 | 0.00 | 80 | 1029.1 |
| 20260502090928 | 27 | 208 | 0.0 | 0.9 | 0.00 | 0.00 | 0.00 | 80 | 1029.0 |
| 20260502090425 | 27 | 199 | 0.0 | 0.9 | 0.00 | 0.00 | 0.00 | 81 | 1028.9 |
| 20260502071308 | 28 | 200 | 0.0 | 0.9 | 0.00 | 0.00 | 0.00 | 81 | 1029.3 |
| 20260502070807 | 29 | 218 | 0.0 | 0.0 | 0.00 | 0.00 | 0.00 | 80 | 1029.4 |
| 20260502070304 | 29 | 193 | 0.9 | 0.9 | 0.00 | 0.00 | 0.00 | 80 | 1029.8 |
| 20260502065803 | 29 | 180 | 0.9 | 0.9 | 0.00 | 0.00 | 0.00 | 80 | 1029.8 |
| 20260502065300 | 29 | 191 | 0.9 | 0.9 | 0.00 | 0.00 | 0.00 | 81 | 1029.7 |
| 20260502064758 | 29 | 185 | 0.9 | 0.9 | 0.00 | 0.00 | 0.00 | 82 | 1029.8 |
| 20260502064255 | 28 | 191 | 0.9 | 0.9 | 0.00 | 0.00 | 0.00 | 82 | 1029.7 |
| 20260502063753 | 29 | 201 | 0.0 | 0.9 | 0.00 | 0.00 | 0.00 | 83 | 1029.9 |
| 20260502063251 | 28 | 209 | 0.0 | 0.0 | 0.00 | 0.00 | 0.00 | 83 | 1029.7 |
| 20260502062748 | 28 | 174 | 0.9 | 1.7 | 0.00 | 0.00 | 0.00 | 82 | 1029.8 |
| 20260502062245 | 29 | 203 | 0.0 | 0.0 | 0.00 | 0.00 | 0.00 | 81 | 1029.8 |
| 20260502061744 | 28 | 204 | 0.0 | 0.0 | 0.00 | 0.00 | 0.00 | 81 | 1029.7 |
| 20260502061241 | 28 | 206 | 0.0 | 0.0 | 0.00 | 0.00 | 0.00 | 81 | 1029.7 |
| 20260502060736 | 28 | 209 | 0.0 | 0.0 | 0.00 | 0.00 | 0.00 | 81 | 1029.8 |
| 20260502060226 | 28 | 189 | 0.9 | 0.9 | 0.00 | 0.00 | 0.00 | 82 | 1029.7 |
| 20260502055725 | 29 | 214 | 0.0 | 0.0 | 0.00 | 0.05 | 0.05 | 81 | 1029.7 |
| 20260502055222 | 29 | 208 | 0.0 | 0.0 | 0.00 | 0.05 | 0.05 | 81 | 1029.8 |
| 20260502054721 | 29 | 196 | 0.9 | 0.9 | 0.00 | 0.05 | 0.05 | 82 | 1029.7 |
| 20260502054218 | 29 | 211 | 0.0 | 0.0 | 0.00 | 0.05 | 0.05 | 82 | 1029.9 |
| 20260502053715 | 29 | 193 | 0.9 | 0.9 | 0.00 | 0.05 | 0.05 | 81 | 1029.7 |
| 20260502053212 | 29 | 209 | 0.0 | 0.0 | 0.00 | 0.05 | 0.05 | 83 | 1029.5 |
| 20260502052710 | 29 | 217 | 0.0 | 0.0 | 0.00 | 0.05 | 0.05 | 81 | 1029.8 |
| 20260502052208 | 29 | 225 | 0.0 | 0.0 | 0.00 | 0.05 | 0.05 | 80 | 1029.7 |
| 20260502051701 | 29 | 201 | 0.9 | 0.9 | 0.00 | 0.05 | 0.05 | 80 | 1029.8 |
| 20260502051159 | 29 | 218 | 0.0 | 0.0 | 0.00 | 0.05 | 0.05 | 81 | 1029.5 |
| 20260502050655 | 29 | 208 | 0.9 | 0.9 | 0.00 | 0.05 | 0.05 | 81 | 1029.7 |
| 20260502050151 | 29 | 214 | 0.0 | 0.0 | 0.00 | 0.05 | 0.05 | 80 | 1029.7 |
| 20260502045647 | 30 | 192 | 0.0 | 0.0 | 0.00 | 0.05 | 0.05 | 78 | 1029.7 |
| 20260502045145 | 30 | 207 | 0.0 | 0.9 | 0.00 | 0.05 | 0.05 | 79 | 1029.5 |
| 20260502044641 | 30 | 203 | 0.9 | 0.9 | 0.00 | 0.05 | 0.05 | 79 | 1029.5 |
| 20260502044138 | 30 | 215 | 0.0 | 0.0 | 0.00 | 0.05 | 0.05 | 77 | 1029.4 |
| 20260502043635 | 30 | 186 | 0.9 | 0.9 | 0.00 | 0.05 | 0.05 | 77 | 1029.4 |
| 20260502043127 | 30 | 207 | 0.0 | 0.9 | 0.00 | 0.05 | 0.05 | 77 | 1029.5 |
| 20260502042626 | 30 | 207 | 0.0 | 0.9 | 0.00 | 0.05 | 0.05 | 78 | 1029.5 |
| 20260502042124 | 30 | 211 | 0.0 | 0.0 | 0.00 | 0.05 | 0.05 | 78 | 1029.3 |
| 20260502041621 | 30 | 217 | 0.0 | 0.0 | 0.00 | 0.05 | 0.05 | 78 | 1029.4 |
| 20260502041118 | 30 | 211 | 0.0 | 0.0 | 0.00 | 0.05 | 0.05 | 77 | 1029.5 |
| 20260502040615 | 30 | 197 | 0.0 | 0.9 | 0.00 | 0.05 | 0.05 | 77 | 1029.4 |
| 20260502040113 | 31 | 211 | 0.0 | 0.0 | 0.00 | 0.05 | 0.05 | 77 | 1029.4 |
| 20260502035608 | 31 | 205 | 0.0 | 0.0 | 0.00 | 0.05 | 0.05 | 76 | 1029.3 |
| 20260502035105 | 31 | 218 | 0.0 | 0.0 | 0.00 | 0.05 | 0.05 | 75 | 1029.0 |
| 20260502034603 | 32 | 209 | 0.0 | 0.0 | 0.00 | 0.05 | 0.05 | 75 | 1029.0 |
| 20260502034101 | 32 | 196 | 0.9 | 0.9 | 0.00 | 0.05 | 0.05 | 74 | 1028.8 |
| 20260502033559 | 32 | 218 | 0.0 | 0.0 | 0.00 | 0.05 | 0.05 | 74 | 1028.9 |
| 20260502033056 | 32 | 214 | 0.0 | 0.0 | 0.00 | 0.05 | 0.05 | 73 | 1028.5 |
| 20260502032552 | 32 | 210 | 0.0 | 0.0 | 0.00 | 0.05 | 0.05 | 72 | 1028.5 |
| 20260502032049 | 33 | 176 | 0.9 | 0.9 | 0.00 | 0.05 | 0.05 | 76 | 1028.6 |
| 20260502031547 | 33 | 204 | 0.0 | 0.0 | 0.00 | 0.05 | 0.05 | 70 | 1028.5 |
| 20260502031044 | 33 | 214 | 0.0 | 0.0 | 0.00 | 0.05 | 0.05 | 69 | 1028.6 |
| 20260502030544 | 33 | 206 | 0.0 | 0.9 | 0.00 | 0.05 | 0.05 | 69 | 1028.4 |
| 20260502030041 | 34 | 193 | 0.9 | 0.9 | 0.00 | 0.05 | 0.05 | 67 | 1028.1 |
| 20260502025538 | 34 | 196 | 0.0 | 0.9 | 0.00 | 0.05 | 0.05 | 68 | 1028.1 |
| 20260502025036 | 35 | 201 | 0.9 | 0.9 | 0.00 | 0.05 | 0.05 | 66 | 1028.3 |
| 20260502024533 | 35 | 200 | 0.0 | 0.0 | 0.00 | 0.05 | 0.05 | 65 | 1027.9 |
| 20260502024032 | 36 | 207 | 0.0 | 0.0 | 0.00 | 0.05 | 0.05 | 64 | 1028.0 |
| 20260502023529 | 36 | 188 | 0.9 | 0.9 | 0.00 | 0.05 | 0.05 | 63 | 1027.9 |
| 20260502023026 | 37 | 185 | 0.0 | 0.9 | 0.00 | 0.05 | 0.05 | 61 | 1027.9 |
| 20260502022522 | 37 | 183 | 0.9 | 0.9 | 0.00 | 0.05 | 0.05 | 61 | 1027.8 |
| 20260502022020 | 37 | 192 | 0.9 | 0.9 | 0.00 | 0.05 | 0.05 | 60 | 1027.8 |
| 20260502021517 | 38 | 201 | 0.0 | 0.0 | 0.00 | 0.05 | 0.05 | 58 | 1027.6 |
| 20260502021014 | 38 | 250 | 0.0 | 0.9 | 0.00 | 0.05 | 0.05 | 58 | 1027.8 |
| 20260502020512 | 39 | 199 | 0.0 | 0.0 | 0.00 | 0.05 | 0.05 | 58 | 1027.9 |
| 20260502020008 | 39 | 210 | 0.0 | 0.0 | 0.00 | 0.05 | 0.05 | 58 | 1027.5 |
| 20260502015506 | 40 | 220 | 0.0 | 0.0 | 0.00 | 0.05 | 0.05 | 60 | 1027.8 |
| 20260502015002 | 41 | 221 | 0.0 | 0.0 | 0.00 | 0.05 | 0.05 | 57 | 1027.5 |
| 20260502014459 | 42 | 219 | 0.0 | 0.0 | 0.00 | 0.05 | 0.05 | 51 | 1027.4 |
| 20260502013956 | 43 | 220 | 0.0 | 0.0 | 0.00 | 0.05 | 0.05 | 49 | 1027.5 |
| 20260502013451 | 44 | 223 | 0.0 | 0.0 | 0.00 | 0.05 | 0.05 | 45 | 1027.4 |
| 20260502012948 | 45 | 273 | 1.7 | 1.7 | 0.00 | 0.05 | 0.05 | 43 | 1027.4 |
| 20260502012446 | 45 | 250 | 0.9 | 0.9 | 0.00 | 0.05 | 0.05 | 41 | 1027.4 |
| 20260502011943 | 45 | 225 | 0.0 | 0.0 | 0.00 | 0.05 | 0.05 | 44 | 1027.3 |
| 20260502011439 | 46 | 238 | 0.0 | 0.9 | 0.00 | 0.05 | 0.05 | 44 | 1027.0 |
| 20260502010936 | 46 | 312 | 0.9 | 0.9 | 0.00 | 0.05 | 0.05 | 40 | 1027.0 |
| 20260502010433 | 46 | 245 | 0.9 | 0.9 | 0.00 | 0.05 | 0.05 | 39 | 1027.3 |
| 20260502005929 | 46 | 224 | 0.9 | 0.9 | 0.00 | 0.05 | 0.05 | 38 | 1027.1 |
| 20260502005427 | 47 | 320 | 2.6 | 2.6 | 0.00 | 0.05 | 0.05 | 38 | 1026.8 |
| 20260502004925 | 47 | 241 | 2.6 | 2.6 | 0.00 | 0.05 | 0.05 | 38 | 1026.8 |
| 20260502004421 | 48 | 161 | 3.5 | 5.2 | 0.00 | 0.05 | 0.05 | 38 | 1026.9 |
| 20260502003918 | 48 | 214 | 1.7 | 2.6 | 0.00 | 0.05 | 0.05 | 36 | 1027.0 |
| 20260502003415 | 48 | 21 | 5.2 | 6.1 | 0.00 | 0.05 | 0.05 | 37 | 1027.0 |
| 20260502002911 | 48 | 184 | 2.6 | 2.6 | 0.00 | 0.05 | 0.05 | 35 | 1026.8 |
| 20260502002409 | 47 | 107 | 1.7 | 1.7 | 0.00 | 0.05 | 0.05 | 37 | 1026.8 |
| 20260502001906 | 47 | 170 | 2.6 | 2.6 | 0.00 | 0.05 | 0.05 | 37 | 1026.8 |
| 20260502001403 | 49 | 248 | 0.9 | 1.7 | 0.00 | 0.05 | 0.05 | 37 | 1026.9 |
| 20260502000901 | 48 | 251 | 3.5 | 5.2 | 0.00 | 0.05 | 0.05 | 36 | 1027.0 |
| 20260502000402 | 48 | 221 | 0.0 | 0.0 | 0.00 | 0.05 | 0.05 | 37 | 1026.9 |
| 20260501235855 | 47 | 222 | 0.0 | 0.9 | 0.00 | 0.05 | 0.05 | 38 | 1026.8 |
| 20260501235351 | 47 | 58 | 3.5 | 4.3 | 0.00 | 0.05 | 0.05 | 37 | 1026.8 |
| 20260501234846 | 47 | 209 | 0.0 | 0.0 | 0.00 | 0.05 | 0.05 | 38 | 1026.5 |
| 20260501234344 | 47 | 287 | 1.7 | 2.6 | 0.00 | 0.05 | 0.05 | 36 | 1026.6 |
| 20260501233842 | 47 | 92 | 0.9 | 1.7 | 0.00 | 0.05 | 0.05 | 39 | 1026.6 |
| 20260501233339 | 48 | 135 | 3.5 | 4.3 | 0.00 | 0.05 | 0.05 | 37 | 1026.5 |
| 20260501232835 | 48 | 273 | 1.7 | 1.7 | 0.00 | 0.05 | 0.05 | 38 | 1026.4 |
| 20260501232332 | 48 | 224 | 0.9 | 0.9 | 0.00 | 0.05 | 0.05 | 41 | 1026.6 |
| 20260501231830 | 51 | 261 | 3.5 | 4.3 | 0.00 | 0.05 | 0.05 | 36 | 1026.2 |
| 20260501231327 | 51 | 322 | 1.7 | 4.3 | 0.00 | 0.05 | 0.05 | 36 | 1026.2 |
| 20260501230826 | 49 | 138 | 6.1 | 6.1 | 0.00 | 0.05 | 0.05 | 36 | 1026.4 |
| 20260501230324 | 51 | 256 | 3.5 | 4.3 | 0.00 | 0.05 | 0.05 | 36 | 1026.1 |
| 20260501225821 | 51 | 331 | 7.0 | 9.6 | 0.00 | 0.05 | 0.05 | 35 | 1026.5 |
| 20260501225319 | 50 | 230 | 0.0 | 0.0 | 0.00 | 0.05 | 0.05 | 36 | 1026.1 |
| 20260501224815 | 48 | 224 | 0.9 | 0.9 | 0.00 | 0.05 | 0.05 | 38 | 1026.2 |
| 20260501224312 | 50 | 244 | 0.0 | 0.0 | 0.00 | 0.05 | 0.05 | 38 | 1026.1 |
| 20260501223809 | 48 | 225 | 0.9 | 0.9 | 0.00 | 0.05 | 0.05 | 38 | 1026.4 |
| 20260501223305 | 49 | 352 | 3.5 | 5.2 | 0.00 | 0.05 | 0.05 | 39 | 1026.1 |
| 20260501222801 | 48 | 233 | 0.9 | 1.7 | 0.00 | 0.05 | 0.05 | 40 | 1026.1 |
| 20260501222258 | 48 | 115 | 4.3 | 7.0 | 0.00 | 0.05 | 0.05 | 39 | 1026.1 |
| 20260501221749 | 50 | 46 | 2.6 | 4.3 | 0.00 | 0.05 | 0.05 | 40 | 1026.1 |
| 20260501221246 | 49 | 334 | 3.5 | 4.3 | 0.00 | 0.05 | 0.05 | 40 | 1026.4 |
| 20260501220744 | 48 | 226 | 0.9 | 0.9 | 0.00 | 0.05 | 0.05 | 43 | 1026.0 |
| 20260501220240 | 47 | 182 | 1.7 | 1.7 | 0.00 | 0.05 | 0.05 | 42 | 1026.2 |
| 20260501215732 | 52 | 282 | 0.9 | 1.7 | 0.00 | 0.05 | 0.05 | 39 | 1026.1 |
| 20260501215227 | 50 | 226 | 0.9 | 0.9 | 0.00 | 0.05 | 0.05 | 42 | 1026.1 |
| 20260501214723 | 50 | 353 | 5.2 | 7.0 | 0.00 | 0.05 | 0.05 | 40 | 1026.0 |
| 20260501214219 | 48 | 54 | 4.3 | 5.2 | 0.00 | 0.05 | 0.05 | 42 | 1026.1 |
| 20260501213716 | 47 | 183 | 2.6 | 2.6 | 0.00 | 0.05 | 0.05 | 43 | 1026.2 |
| 20260501213212 | 47 | 75 | 1.7 | 1.7 | 0.00 | 0.05 | 0.05 | 44 | 1026.8 |
| 20260501212708 | 47 | 26 | 4.3 | 7.0 | 0.00 | 0.05 | 0.05 | 45 | 1026.5 |
| 20260501212205 | 48 | 157 | 2.6 | 4.3 | 0.00 | 0.05 | 0.05 | 44 | 1026.5 |
| 20260501211702 | 47 | 192 | 0.9 | 1.7 | 0.00 | 0.05 | 0.05 | 46 | 1026.5 |
| 20260501211159 | 49 | 15 | 1.7 | 2.6 | 0.00 | 0.05 | 0.05 | 46 | 1026.6 |
| 20260501210656 | 48 | 67 | 2.6 | 2.6 | 0.00 | 0.05 | 0.05 | 45 | 1026.8 |
| 20260501210152 | 49 | 21 | 4.3 | 6.1 | 0.00 | 0.05 | 0.05 | 44 | 1026.6 |
| 20260501205648 | 49 | 145 | 1.7 | 2.6 | 0.00 | 0.05 | 0.05 | 46 | 1026.5 |
| 20260501205146 | 49 | 13 | 1.7 | 5.2 | 0.00 | 0.05 | 0.05 | 43 | 1026.8 |
| 20260501204643 | 47 | 328 | 0.9 | 0.9 | 0.00 | 0.05 | 0.05 | 45 | 1026.6 |
| 20260501204138 | 46 | 256 | 5.2 | 6.1 | 0.00 | 0.05 | 0.05 | 46 | 1026.5 |
| 20260501203635 | 47 | 247 | 3.5 | 5.2 | 0.00 | 0.05 | 0.05 | 43 | 1026.6 |
| 20260501203133 | 50 | 234 | 2.6 | 2.6 | 0.00 | 0.05 | 0.05 | 43 | 1026.2 |
| 20260501202630 | 49 | 146 | 2.6 | 2.6 | 0.00 | 0.05 | 0.05 | 40 | 1026.4 |
| 20260501202127 | 47 | 72 | 1.7 | 1.7 | 0.00 | 0.05 | 0.05 | 45 | 1026.9 |
| 20260501201624 | 48 | 294 | 0.0 | 0.9 | 0.00 | 0.05 | 0.05 | 43 | 1026.5 |
| 20260501201120 | 48 | 72 | 4.3 | 6.1 | 0.00 | 0.05 | 0.05 | 45 | 1026.6 |
| 20260501200617 | 48 | 92 | 0.9 | 1.7 | 0.00 | 0.05 | 0.05 | 45 | 1026.6 |
| 20260501200114 | 47 | 321 | 2.6 | 2.6 | 0.00 | 0.05 | 0.05 | 42 | 1026.6 |
| 20260501195606 | 50 | 263 | 2.6 | 2.6 | 0.00 | 0.05 | 0.05 | 42 | 1026.6 |
| 20260501195101 | 49 | 214 | 0.9 | 0.9 | 0.00 | 0.05 | 0.05 | 40 | 1026.9 |
| 20260501194557 | 47 | 176 | 1.7 | 1.7 | 0.00 | 0.05 | 0.05 | 47 | 1026.8 |
| 20260501194053 | 45 | 220 | 0.0 | 0.9 | 0.00 | 0.05 | 0.05 | 49 | 1026.8 |
| 20260501193551 | 43 | 3 | 1.7 | 1.7 | 0.00 | 0.05 | 0.05 | 52 | 1026.8 |
| 20260501193049 | 44 | 32 | 2.6 | 2.6 | 0.00 | 0.05 | 0.05 | 52 | 1026.6 |
| 20260501192545 | 45 | 286 | 0.0 | 0.0 | 0.00 | 0.05 | 0.05 | 52 | 1026.5 |
| 20260501192043 | 46 | 232 | 0.9 | 1.7 | 0.00 | 0.05 | 0.05 | 48 | 1026.6 |
| 20260501191540 | 47 | 201 | 2.6 | 2.6 | 0.00 | 0.05 | 0.05 | 46 | 1026.6 |
| 20260501191038 | 47 | 225 | 2.6 | 2.6 | 0.00 | 0.05 | 0.05 | 52 | 1026.8 |
| 20260501190533 | 46 | 217 | 1.7 | 1.7 | 0.00 | 0.05 | 0.05 | 56 | 1026.9 |
| 20260501190029 | 44 | 221 | 0.9 | 1.7 | 0.00 | 0.05 | 0.05 | 59 | 1027.0 |
| 20260501185525 | 44 | 226 | 0.9 | 0.9 | 0.00 | 0.05 | 0.05 | 57 | 1026.9 |
| 20260501185021 | 44 | 221 | 2.6 | 2.6 | 0.00 | 0.05 | 0.05 | 59 | 1027.1 |
| 20260501184518 | 46 | 219 | 0.0 | 0.9 | 0.00 | 0.05 | 0.05 | 53 | 1026.9 |
| 20260501184017 | 47 | 218 | 0.0 | 0.0 | 0.00 | 0.05 | 0.05 | 54 | 1027.1 |
| 20260501183515 | 44 | 234 | 0.9 | 1.7 | 0.00 | 0.05 | 0.05 | 53 | 1027.0 |
| 20260501183011 | 46 | 117 | 2.6 | 5.2 | 0.00 | 0.05 | 0.05 | 52 | 1027.0 |
| 20260501182508 | 43 | 215 | 0.9 | 1.7 | 0.00 | 0.05 | 0.05 | 58 | 1027.0 |
| 20260501182005 | 43 | 220 | 1.7 | 1.7 | 0.00 | 0.05 | 0.05 | 57 | 1027.3 |
| 20260501181502 | 41 | 218 | 0.0 | 0.9 | 0.00 | 0.05 | 0.05 | 62 | 1027.3 |
| 20260501180959 | 41 | 210 | 1.7 | 1.7 | 0.00 | 0.05 | 0.05 | 63 | 1027.3 |
| 20260501180456 | 41 | 296 | 2.6 | 2.6 | 0.00 | 0.05 | 0.05 | 64 | 1027.4 |
| 20260501175952 | 42 | 13 | 2.6 | 4.3 | 0.00 | 0.05 | 0.05 | 61 | 1027.4 |
| 20260501175449 | 42 | 221 | 0.9 | 1.7 | 0.00 | 0.05 | 0.05 | 64 | 1027.4 |
| 20260501174945 | 41 | 201 | 1.7 | 1.7 | 0.00 | 0.05 | 0.05 | 63 | 1027.5 |
| 20260501174444 | 41 | 353 | 3.5 | 5.2 | 0.00 | 0.05 | 0.05 | 62 | 1027.4 |
| 20260501173941 | 41 | 234 | 0.9 | 1.7 | 0.00 | 0.05 | 0.05 | 69 | 1027.8 |
| 20260501173439 | 42 | 181 | 5.2 | 7.0 | 0.00 | 0.05 | 0.05 | 66 | 1027.5 |
| 20260501172934 | 42 | 2 | 7.0 | 8.7 | 0.00 | 0.05 | 0.05 | 66 | 1027.3 |
| 20260501172430 | 44 | 181 | 0.9 | 1.7 | 0.00 | 0.05 | 0.05 | 59 | 1027.5 |
| 20260501171925 | 44 | 81 | 2.6 | 2.6 | 0.00 | 0.05 | 0.05 | 61 | 1027.5 |
| 20260501171422 | 43 | 13 | 3.5 | 6.1 | 0.00 | 0.05 | 0.05 | 60 | 1027.3 |
| 20260501170918 | 41 | 276 | 2.6 | 2.6 | 0.00 | 0.05 | 0.05 | 62 | 1027.5 |
| 20260501170415 | 42 | 179 | 3.5 | 5.2 | 0.00 | 0.05 | 0.05 | 62 | 1027.6 |
| 20260501165913 | 43 | 212 | 4.3 | 5.2 | 0.00 | 0.05 | 0.05 | 62 | 1027.4 |
| 20260501165411 | 41 | 204 | 0.9 | 0.9 | 0.00 | 0.05 | 0.05 | 61 | 1027.6 |
| 20260501164908 | 42 | 203 | 0.0 | 0.9 | 0.00 | 0.05 | 0.05 | 64 | 1027.4 |
| 20260501164406 | 39 | 172 | 0.0 | 0.0 | 0.00 | 0.05 | 0.05 | 68 | 1027.5 |
| 20260501163902 | 39 | 249 | 0.0 | 0.9 | 0.00 | 0.05 | 0.05 | 71 | 1027.4 |
| 20260501163358 | 39 | 219 | 0.0 | 0.9 | 0.00 | 0.05 | 0.05 | 68 | 1027.3 |
| 20260501162855 | 40 | 203 | 0.0 | 0.0 | 0.00 | 0.05 | 0.05 | 64 | 1027.5 |